Torna al catalogo

FENGYUN 1C DEB

LostPO
NORAD 31696·DEBRIS·🇨🇳 China

Lanciato May 10, 1999 da Taiyuan Satellite Launch Center

Loading…

Prossimi Passaggi (prossime 24 ore)

TLE

ObsoletoSource: Space-Track

Epoca: Sep 14, 2024, 22:39 UTC

1 31696U 99025CDE 24258.94424001  .00004746  00000-0  35409-2 0  9999
2 31696  97.8119 331.5621 0150749 148.8684 212.1518 13.89911059882877

Traccia FENGYUN 1C DEB in tempo reale con AllMySat

Download on the App Store